Hourly Data Report for March 03, 2004

SHERBROOKE A
QUEBEC

45°26'00.000" N
71°41'00.000" W
241.40 m
7028124
71610
YSC

Download Data

Hourly Data (March 2004)
Hourly Data Report for March 3, 2004
TIME
LST
Temp Definition
°C
Dew Point Definition
°C
Rel Hum Definition
%
Precip. Amount Definition
mm

Wind Dir Definition
10's deg

Wind Spd Definition
km/h
Visibility Definition
km
Stn Press Definition
kPa
Hmdx Definition


Wind Chill Definition


Weather Definition


00:00 3.4 -2.0 68   27 24 15.0 98.19     Rain
01:00 3.2 -2.1 68   26 22 15.0 98.29      
02:00 3.0 -2.2 69   27 22 15.0 98.34      
03:00 2.7 -2.4 69   26 24 15.0 98.35      
04:00 2.6 -2.4 70   27 28 15.0 98.43     Snow
05:00 2.2 -2.9 69   27 19 15.0 98.53     Snow
06:00 2.4 -3.1 67   27 22 15.0 98.61      
07:00 2.0 -4.1 64   29 32 15.0 98.70     Snow
08:00 1.4 -4.8 63   30 19 19.3 98.82     Snow
09:00 0.7 -6.3 59   30 20 19.3 98.95     Snow
10:00 0.9 -6.9 56   28 20 24.1 98.97     Cloudy
11:00 0.5 -6.3 60   28 22 19.3 99.05     Snow
12:00 0.2 -6.6 60   28 20 19.3 99.05     Snow
13:00 0.2 -6.3 62   30 19 24.1 99.02     Snow
14:00 0.6 -7.6 54   30 17 24.1 99.05     Cloudy
15:00 0.6 -7.7 54   28 17 24.1 99.07     Cloudy
16:00 0.6 -8.0 52   28 20 24.1 99.17     Cloudy
17:00 0.5 -8.0 53   27 15 24.1 99.20     Cloudy
18:00 0.2 -8.0 54   26 11 15.0 99.20      
19:00 0.0 -7.8 56   24 9 15.0 99.26   -3  
20:00 -0.4 -8.1 56   25 11 15.0 99.30   -4  
21:00 -1.2 -8.4 58   23 6 15.0 99.26   -3  
22:00 -2.5 -9.1 60   21 6 15.0 99.19   -5  
23:00 -2.6 -8.8 62   22 6 15.0 99.16   -5  

Notes on Data Quality.

Legend

  • E = Estimated
  • M = Missing
  • NA = Not Available*
  • [empty] = Indicates an unobserved value
Date modified: